Tracking 18984 objects as of 24-Feb-2018
HD Live streaming from Space Station
objects crossing your sky now

SCOUT A DEB

Track SCOUT A DEB now!
10-day predictions


NORAD ID: 3591
Int'l Code: 1966-041E
Perigee: 836.0 km
Apogee: 947.3 km
Inclination: 90.2 °
Period: 102.7 minutes
Semi major axis: 7262 km
RCS: 0.073 m2 (small)
Launch date: May 19, 1966
Source: United States (US)
Launch site: AIR FORCE WESTERN TEST RANGE (AFWTR)

Note: This is SATELLITE DEBRIS
aabbcc
Your satellite tracking list
Your tracking list is empty




NASA's NSSDC Master Catalog

Two Line Element Set (TLE):
1  3591U 66041E   18055.19635629 +.00000149 +00000-0 +87513-4 0  9997
2  3591 090.1504 020.1357 0076640 359.9835 000.1329 14.02696717641797
Source of the keplerian elements: AFSPC